Time,TemperatureF,DewpointF,PressureIn,WindDirection,WindDirectionDegrees,WindSpeedMPH,WindSpeedGustMPH,Humidity,HourlyPrecipIn,Conditions,Clouds,dailyrainin,SoftwareType,DateUTC
2013-02-15 00:01:00,70.0,61.0,-100.00,NE,54,6.0,10.0,72,0.00,,,0.00,,2013-02-15 10:01:00,
2013-02-15 00:11:00,70.0,61.0,-100.00,NE,54,6.0,10.0,72,0.00,,,0.00,,2013-02-15 10:11:00,
2013-02-15 00:21:00,70.0,61.0,-100.00,NE,54,6.0,10.0,72,0.00,,,0.00,,2013-02-15 10:21:00,
2013-02-15 00:31:00,70.0,61.0,-100.00,NE,54,6.0,10.0,72,0.00,,,0.00,,2013-02-15 10:31:00,
2013-02-15 00:41:00,71.0,60.0,-100.00,NE,40,5.0,12.0,69,0.00,,,-99.99,,2013-02-15 10:41:00,
2013-02-15 01:01:00,71.0,60.0,-100.00,NE,40,5.0,12.0,69,0.00,,,-99.99,,2013-02-15 11:01:00,
2013-02-15 01:11:00,71.0,60.0,-100.00,NE,40,5.0,12.0,69,0.00,,,-99.99,,2013-02-15 11:11:00,
2013-02-15 01:22:00,71.0,60.0,-100.00,NE,40,5.0,12.0,69,0.00,,,-99.99,,2013-02-15 11:22:00,
2013-02-15 01:31:00,71.0,60.0,-100.00,NE,40,5.0,12.0,69,0.00,,,-99.99,,2013-02-15 11:31:00,
2013-02-15 01:41:00,71.0,59.0,-100.00,ENE,71,7.0,14.0,67,0.00,,,0.00,,2013-02-15 11:41:00,
2013-02-15 02:01:00,71.0,59.0,-100.00,ENE,71,7.0,14.0,67,0.00,,,0.00,,2013-02-15 12:01:00,
2013-02-15 02:11:00,71.0,59.0,-100.00,ENE,71,7.0,14.0,67,0.00,,,0.00,,2013-02-15 12:11:00,
2013-02-15 02:21:00,71.0,59.0,-100.00,ENE,71,7.0,14.0,67,0.00,,,0.00,,2013-02-15 12:21:00,
2013-02-15 02:31:00,71.0,59.0,-100.00,ENE,71,7.0,14.0,67,0.00,,,0.00,,2013-02-15 12:31:00,
2013-02-15 02:41:00,70.0,59.0,-100.00,NE,53,8.0,13.0,69,0.00,,,0.00,,2013-02-15 12:41:00,
2013-02-15 03:02:00,70.0,59.0,-100.00,NE,53,8.0,13.0,69,0.00,,,0.00,,2013-02-15 13:02:00,
2013-02-15 03:11:00,70.0,59.0,-100.00,NE,53,8.0,13.0,69,0.00,,,0.00,,2013-02-15 13:11:00,
2013-02-15 03:21:00,70.0,59.0,-100.00,NE,53,8.0,13.0,69,0.00,,,0.00,,2013-02-15 13:21:00,
2013-02-15 03:31:00,70.0,59.0,-100.00,NE,53,8.0,13.0,69,0.00,,,0.00,,2013-02-15 13:31:00,
2013-02-15 03:41:00,70.0,62.0,-100.00,East,82,7.0,11.0,75,0.00,,,-99.99,,2013-02-15 13:41:00,
2013-02-15 04:01:00,70.0,62.0,-100.00,East,82,7.0,11.0,75,0.00,,,-99.99,,2013-02-15 14:01:00,
2013-02-15 04:11:00,70.0,62.0,-100.00,East,82,7.0,11.0,75,0.00,,,-99.99,,2013-02-15 14:11:00,
2013-02-15 04:21:00,70.0,62.0,-100.00,East,82,7.0,11.0,75,0.00,,,-99.99,,2013-02-15 14:21:00,
2013-02-15 04:32:00,70.0,62.0,-100.00,East,82,7.0,11.0,75,0.00,,,-99.99,,2013-02-15 14:32:00,
2013-02-15 04:41:00,70.0,59.0,-100.00,NE,51,6.0,16.0,67,0.00,,,0.00,,2013-02-15 14:41:00,
2013-02-15 05:01:00,70.0,59.0,-100.00,NE,51,6.0,16.0,67,0.00,,,0.00,,2013-02-15 15:01:00,
2013-02-15 05:11:00,70.0,59.0,-100.00,NE,51,6.0,16.0,67,0.00,,,0.00,,2013-02-15 15:11:00,
2013-02-15 05:21:00,70.0,59.0,-100.00,NE,51,6.0,16.0,67,0.00,,,0.00,,2013-02-15 15:21:00,
2013-02-15 05:32:00,70.0,59.0,-100.00,NE,51,6.0,16.0,67,0.00,,,0.00,,2013-02-15 15:32:00,
2013-02-15 05:41:00,71.0,59.0,-100.00,East,90,8.0,15.0,67,0.00,,,0.00,,2013-02-15 15:41:00,
2013-02-15 06:01:00,71.0,59.0,-100.00,East,90,8.0,15.0,67,0.00,,,0.00,,2013-02-15 16:01:00,
2013-02-15 06:11:00,71.0,59.0,-100.00,East,90,8.0,15.0,67,0.00,,,0.00,,2013-02-15 16:11:00,
2013-02-15 06:22:00,71.0,59.0,-100.00,East,90,8.0,15.0,67,0.00,,,0.00,,2013-02-15 16:22:00,
2013-02-15 06:31:00,71.0,59.0,-100.00,East,90,8.0,15.0,67,0.00,,,0.00,,2013-02-15 16:31:00,
2013-02-15 06:41:00,71.0,59.0,-100.00,ENE,78,9.0,15.0,65,0.00,,,0.00,,2013-02-15 16:41:00,
2013-02-15 07:01:00,71.0,59.0,-100.00,ENE,78,9.0,15.0,65,0.00,,,0.00,,2013-02-15 17:01:00,
2013-02-15 07:11:00,71.0,59.0,-100.00,ENE,78,9.0,15.0,65,0.00,,,0.00,,2013-02-15 17:11:00,
2013-02-15 07:21:00,71.0,59.0,-100.00,ENE,78,9.0,15.0,65,0.00,,,0.00,,2013-02-15 17:21:00,
2013-02-15 07:32:00,71.0,59.0,-100.00,ENE,78,9.0,15.0,65,0.00,,,0.00,,2013-02-15 17:32:00,
2013-02-15 07:41:00,71.0,59.0,-100.00,East,94,7.0,15.0,66,0.00,,,0.00,,2013-02-15 17:41:00,
2013-02-15 08:01:00,71.0,59.0,-100.00,East,94,7.0,15.0,66,0.00,,,0.00,,2013-02-15 18:01:00,
2013-02-15 08:11:00,71.0,59.0,-100.00,East,94,7.0,15.0,66,0.00,,,0.00,,2013-02-15 18:11:00,
2013-02-15 08:21:00,71.0,59.0,-100.00,East,94,7.0,15.0,66,0.00,,,0.00,,2013-02-15 18:21:00,
2013-02-15 08:31:00,71.0,59.0,-100.00,East,94,7.0,15.0,66,0.00,,,0.00,,2013-02-15 18:31:00,
2013-02-15 08:41:00,71.0,58.0,-100.00,East,97,9.0,17.0,63,0.00,,,0.00,,2013-02-15 18:41:00,
2013-02-15 09:01:00,71.0,58.0,-100.00,East,97,9.0,17.0,63,0.00,,,0.00,,2013-02-15 19:01:00,
2013-02-15 09:11:00,71.0,58.0,-100.00,East,97,9.0,17.0,63,0.00,,,0.00,,2013-02-15 19:11:00,
2013-02-15 09:21:00,71.0,58.0,-100.00,East,97,9.0,17.0,63,0.00,,,0.00,,2013-02-15 19:21:00,
2013-02-15 09:32:00,71.0,58.0,-100.00,East,97,9.0,17.0,63,0.00,,,0.00,,2013-02-15 19:32:00,
2013-02-15 09:41:00,74.0,61.0,-100.00,East,94,12.0,19.0,63,0.00,,,0.00,,2013-02-15 19:41:00,
2013-02-15 10:01:00,74.0,61.0,-100.00,East,94,12.0,19.0,63,0.00,,,0.00,,2013-02-15 20:01:00,
2013-02-15 10:11:00,74.0,61.0,-100.00,East,94,12.0,19.0,63,0.00,,,0.00,,2013-02-15 20:11:00,
2013-02-15 10:21:00,74.0,61.0,-100.00,East,94,12.0,19.0,63,0.00,,,0.00,,2013-02-15 20:21:00,
2013-02-15 10:32:00,74.0,61.0,-100.00,East,94,12.0,19.0,63,0.00,,,0.00,,2013-02-15 20:32:00,
2013-02-15 10:41:00,76.0,61.0,-100.00,East,82,11.0,18.0,59,0.00,,,0.00,,2013-02-15 20:41:00,
2013-02-15 11:01:00,76.0,61.0,-100.00,East,82,11.0,18.0,59,0.00,,,0.00,,2013-02-15 21:01:00,
2013-02-15 11:11:00,76.0,61.0,-100.00,East,82,11.0,18.0,59,0.00,,,0.00,,2013-02-15 21:11:00,
2013-02-15 11:21:00,76.0,61.0,-100.00,East,82,11.0,18.0,59,0.00,,,0.00,,2013-02-15 21:21:00,
2013-02-15 11:31:00,76.0,61.0,-100.00,East,82,11.0,18.0,59,0.00,,,0.00,,2013-02-15 21:31:00,
2013-02-15 11:41:00,76.0,60.0,-100.00,ENE,75,10.0,17.0,57,0.00,,,0.00,,2013-02-15 21:41:00,
2013-02-15 12:02:00,76.0,60.0,-100.00,ENE,75,10.0,17.0,57,0.00,,,0.00,,2013-02-15 22:02:00,
2013-02-15 12:11:00,76.0,60.0,-100.00,ENE,75,10.0,17.0,57,0.00,,,0.00,,2013-02-15 22:11:00,
2013-02-15 12:21:00,76.0,60.0,-100.00,ENE,75,10.0,17.0,57,0.00,,,0.00,,2013-02-15 22:21:00,
2013-02-15 12:31:00,76.0,60.0,-100.00,ENE,75,10.0,17.0,57,0.00,,,0.00,,2013-02-15 22:31:00,
2013-02-15 12:41:00,77.0,60.0,-100.00,East,87,12.0,18.0,56,0.00,,,0.00,,2013-02-15 22:41:00,
2013-02-15 13:02:00,77.0,60.0,-100.00,East,87,12.0,18.0,56,0.00,,,0.00,,2013-02-15 23:02:00,
2013-02-15 13:11:00,77.0,60.0,-100.00,East,87,12.0,18.0,56,0.00,,,0.00,,2013-02-15 23:11:00,
2013-02-15 13:21:00,77.0,60.0,-100.00,East,87,12.0,18.0,56,0.00,,,0.00,,2013-02-15 23:21:00,
2013-02-15 13:31:00,77.0,60.0,-100.00,East,87,12.0,18.0,56,0.00,,,0.00,,2013-02-15 23:31:00,
2013-02-15 13:41:00,79.0,61.0,-100.00,ENE,67,8.0,17.0,55,0.00,,,0.00,,2013-02-15 23:41:00,
2013-02-15 14:02:00,79.0,61.0,-100.00,ENE,67,8.0,17.0,55,0.00,,,0.00,,2013-02-16 00:02:00,
2013-02-15 14:11:00,79.0,61.0,-100.00,ENE,67,8.0,17.0,55,0.00,,,0.00,,2013-02-16 00:11:00,
2013-02-15 14:21:00,79.0,61.0,-100.00,ENE,67,8.0,17.0,55,0.00,,,0.00,,2013-02-16 00:21:00,
2013-02-15 14:31:00,79.0,61.0,-100.00,ENE,67,8.0,17.0,55,0.00,,,0.00,,2013-02-16 00:31:00,
2013-02-15 14:41:00,79.0,61.0,-100.00,East,82,8.0,15.0,55,0.00,,,0.00,,2013-02-16 00:41:00,
2013-02-15 15:02:00,79.0,61.0,-100.00,East,82,8.0,15.0,55,0.00,,,0.00,,2013-02-16 01:02:00,
2013-02-15 15:11:00,79.0,61.0,-100.00,East,82,8.0,15.0,55,0.00,,,0.00,,2013-02-16 01:11:00,
2013-02-15 15:21:00,79.0,61.0,-100.00,East,82,8.0,15.0,55,0.00,,,0.00,,2013-02-16 01:21:00,
2013-02-15 15:31:00,79.0,61.0,-100.00,East,82,8.0,15.0,55,0.00,,,0.00,,2013-02-16 01:31:00,
2013-02-15 15:41:00,79.0,62.0,-100.00,ENE,75,8.0,14.0,57,0.00,,,0.00,,2013-02-16 01:41:00,
2013-02-15 16:01:00,79.0,62.0,-100.00,ENE,75,8.0,14.0,57,0.00,,,0.00,,2013-02-16 02:01:00,
2013-02-15 16:11:00,79.0,62.0,-100.00,ENE,75,8.0,14.0,57,0.00,,,0.00,,2013-02-16 02:11:00,
2013-02-15 16:21:00,79.0,62.0,-100.00,ENE,75,8.0,14.0,57,0.00,,,0.00,,2013-02-16 02:21:00,
2013-02-15 16:31:00,79.0,62.0,-100.00,ENE,75,8.0,14.0,57,0.00,,,0.00,,2013-02-16 02:31:00,
2013-02-15 16:41:00,76.0,62.0,-100.00,ENE,78,13.0,18.0,62,0.00,,,0.00,,2013-02-16 02:41:00,
2013-02-15 17:01:00,76.0,62.0,-100.00,ENE,78,13.0,18.0,62,0.00,,,0.00,,2013-02-16 03:01:00,
2013-02-15 17:11:00,76.0,62.0,-100.00,ENE,78,13.0,18.0,62,0.00,,,0.00,,2013-02-16 03:11:00,
2013-02-15 17:21:00,76.0,62.0,-100.00,ENE,78,13.0,18.0,62,0.00,,,0.00,,2013-02-16 03:21:00,
2013-02-15 17:31:00,76.0,62.0,-100.00,ENE,78,13.0,18.0,62,0.00,,,0.00,,2013-02-16 03:31:00,
2013-02-15 17:41:00,76.0,63.0,-100.00,ENE,73,11.0,19.0,64,0.00,,,0.00,,2013-02-16 03:41:00,
2013-02-15 18:01:00,76.0,63.0,-100.00,ENE,73,11.0,19.0,64,0.00,,,0.00,,2013-02-16 04:01:00,
2013-02-15 18:11:00,76.0,63.0,-100.00,ENE,73,11.0,19.0,64,0.00,,,0.00,,2013-02-16 04:11:00,
2013-02-15 18:21:00,76.0,63.0,-100.00,ENE,73,11.0,19.0,64,0.00,,,0.00,,2013-02-16 04:21:00,
2013-02-15 18:31:00,76.0,63.0,-100.00,ENE,73,11.0,19.0,64,0.00,,,0.00,,2013-02-16 04:31:00,
2013-02-15 18:41:00,74.0,64.0,-100.00,ENE,70,6.0,16.0,70,0.00,,,0.00,,2013-02-16 04:41:00,
2013-02-15 19:01:00,74.0,64.0,-100.00,ENE,70,6.0,16.0,70,0.00,,,0.00,,2013-02-16 05:01:00,
2013-02-15 19:11:00,74.0,64.0,-100.00,ENE,70,6.0,16.0,70,0.00,,,0.00,,2013-02-16 05:11:00,
2013-02-15 19:21:00,74.0,64.0,-100.00,ENE,70,6.0,16.0,70,0.00,,,0.00,,2013-02-16 05:21:00,
2013-02-15 19:31:00,74.0,64.0,-100.00,ENE,70,6.0,16.0,70,0.00,,,0.00,,2013-02-16 05:31:00,
2013-02-15 19:41:00,74.0,65.0,-100.00,East,88,8.0,14.0,73,0.00,,,-99.99,,2013-02-16 05:41:00,
2013-02-15 20:01:00,74.0,65.0,-100.00,East,88,8.0,14.0,73,0.00,,,-99.99,,2013-02-16 06:01:00,
2013-02-15 20:11:00,74.0,65.0,-100.00,East,88,8.0,14.0,73,0.00,,,-99.99,,2013-02-16 06:11:00,
2013-02-15 20:21:00,74.0,65.0,-100.00,East,88,8.0,14.0,73,0.00,,,-99.99,,2013-02-16 06:21:00,
2013-02-15 20:32:00,74.0,65.0,-100.00,East,88,8.0,14.0,73,0.00,,,-99.99,,2013-02-16 06:32:00,
2013-02-15 20:41:00,74.0,64.0,-100.00,ENE,63,7.0,12.0,72,0.00,,,0.00,,2013-02-16 06:41:00,
2013-02-15 21:02:00,74.0,64.0,-100.00,ENE,63,7.0,12.0,72,0.00,,,0.00,,2013-02-16 07:02:00,
2013-02-15 21:11:00,74.0,64.0,-100.00,ENE,63,7.0,12.0,72,0.00,,,0.00,,2013-02-16 07:11:00,
2013-02-15 21:21:00,74.0,64.0,-100.00,ENE,63,7.0,12.0,72,0.00,,,0.00,,2013-02-16 07:21:00,
2013-02-15 21:31:00,74.0,64.0,-100.00,ENE,63,7.0,12.0,72,0.00,,,0.00,,2013-02-16 07:31:00,
2013-02-15 21:41:00,74.0,63.0,-100.00,ENE,63,10.0,15.0,69,0.00,,,0.00,,2013-02-16 07:41:00,
2013-02-15 22:01:00,74.0,63.0,-100.00,ENE,63,10.0,15.0,69,0.00,,,0.00,,2013-02-16 08:01:00,
2013-02-15 22:11:00,74.0,63.0,-100.00,ENE,63,10.0,15.0,69,0.00,,,0.00,,2013-02-16 08:11:00,
2013-02-15 22:21:00,74.0,63.0,-100.00,ENE,63,10.0,15.0,69,0.00,,,0.00,,2013-02-16 08:21:00,
2013-02-15 22:31:00,74.0,63.0,-100.00,ENE,63,10.0,15.0,69,0.00,,,0.00,,2013-02-16 08:31:00,
2013-02-15 22:41:00,73.0,63.0,-100.00,ENE,74,9.0,15.0,70,0.00,,,0.00,,2013-02-16 08:41:00,
2013-02-15 23:01:00,73.0,63.0,-100.00,ENE,74,9.0,15.0,70,0.00,,,0.00,,2013-02-16 09:01:00,
2013-02-15 23:11:00,73.0,63.0,-100.00,ENE,74,9.0,15.0,70,0.00,,,0.00,,2013-02-16 09:11:00,
2013-02-15 23:21:00,73.0,63.0,-100.00,ENE,74,9.0,15.0,70,0.00,,,0.00,,2013-02-16 09:21:00,
2013-02-15 23:31:00,73.0,63.0,-100.00,ENE,74,9.0,15.0,70,0.00,,,0.00,,2013-02-16 09:31:00,
2013-02-15 23:41:00,71.0,62.0,-100.00,NNE,30,7.0,17.0,73,0.00,,,0.00,,2013-02-16 09:41:00,